Reflectivity
-20 -20 -20 -20 -20 -20 -20 -20 -20 -20 -20 -20 -20 -20 -20 -20 -20 -20 -20 -20 -20 -20 -20 -20 -20 -20 -20 -20 -20 -20 -20 -20 -20 -20 -20 -20 -20 -20 -20 -20 -20 -20 -20 -20 -20
-20 -20 -20 -20 -20 -20 -20 -20 -20 -20 -20 -20 -20 -20 -20 -20 -20 -20 -20 -20 -20 -20 -20 -20 -20 -20 -20 -20 -20 -20 -20 -20 -20 -20 -20 -20 -20 -20 -20 -20 -20 -20 -20 -20 -20
-20 -20 -20 -20 -20 -20 -20 -20 -20 -20 -20 -20 -20 -20 -20 -20 -20 -20 -20 -20 -20 -20 -20 -20 -20 -20 -20 -20 -20 -20 -20 -20 -20 -20 -20 -20 -20 -20 -20 -20 -20 -20 -20 -20 -20
-20 -20 -20 -20 -20 -20 -20 -20 -20 -20 -20 -20 -20 -20 -20 -20 -20 -20 -20 -20 -20 -20 -20 -20 -20 -20 -20 -20 -20 -20 -20 -20 -20 -20 -20 -20 -20 -20 -20 -20 -20 -20 -20 -20 -20
-20 -20 -20 -20 -20 -20 -20 -20 -20 -20 -20 -20 -20 -20 -20 -20 -20 -20 -20 -20 -20 -20 -20 -20 -20 -20 -20 -20 -20 -20 -20 -20 -20 -20 -20 -20 -20 -20 -20 -20 -20 -20 -20 -20 -20
-20 -20 -20 -20 -20 -20 -20 -20 -20 -20 -20 -20 -20 -20 -20 -20 -20 -20 -20 -20 -20 -20 -20 -20 -20 -20 -20 -20 -20 -20 -20 -20 -20 -20 -20 -20 -20 -20 -20 -20 -20 -20 -20 -20 -20
-20 -20 -20 -20 -20 -20 -20 -20 -20 -20 -20 -20 -20 -20 -20 -20 -20 -20 -20 -20 -20 -20 -20 -20 -20 -20 -20 -20 -20 -20 -20 -20 -20 -20 -20 -20 -20 -20 -20 -20 -20 -20 -20 -20 -20
-20 -17 -20 -20 -20 -20 -20 -20 -20 -20 -20 -20 -20 -20 -20 -20 -20 -20 -20 -20 -20 -20 -20 -20 -20 -20 -20 -20 -20 -20 -20 -20 -20 -20 -20 -20 -20 -20 -20 -20 -20 -20 -20 -20 -20
-20 -20 -20 -20 -20 -20 -20 -20 -20 -20 -20 -20 -20 -20 -20 -20 -20 -20 -20 -20 -20 -20 -20 -20 -20 -20 -20 -20 -20 -20 -20 -20 -20 -20 -20 -20 -20 -20 -20 -20 -20 -20 -20 -20 -20
-20 -20 -20 -16 -19 -20 -20 -20 -20 -20 -20 -20 -20 -20 -20 -20 -20 -14 -20 -20 -20 -17 -19 -18 -20 -20 -20 -19 -20 -20 -20 -20 -20 -20 -20 -20 -20 -20 -20 -20 -20 -20 -20 -20 -20
-20 -20 -20 -20 -20 -20 -20 -20 -15 -20 -20 -20 -20 -20 -20 -12 -20 -20 0 -0 -20 -20 -20 -20 -20 -20 -20 -20 -20 -20 -20 -20 -20 -20 -20 -20 -20 -20 -20 -20 -20 -20 -20 -20 -20
-20 -20 -20 -15 -2 -17 -20 -20 -9 -13 -20 -20 -20 -20 -20 -6 -17 -4 2 -14 -20 -20 -20 -20 -20 -20 -20 -20 -20 -20 -20 -20 -20 -20 -20 -20 -20 -20 -20 -20 -20 -20 -20 -20 -20
-20 -20 -20 -8 6 -6 -20 -20 -13 -15 -20 -20 -19 -20 -20 -20 -20 -18 9 4 -19 -20 -20 -20 -20 -20 -20 -20 -20 -20 -20 -20 -20 -20 -20 -20 -20 -20 -20 -20 -20 -20 -20 -20 -20
-20 -20 -20 -10 -2 -8 -20 -20 -7 -20 -20 -20 -20 -20 -19 -20 -20 -20 -2 -13 -19 -20 -20 -20 -20 -20 -20 -20 -20 -20 -20 -20 -20 -20 -20 -20 -20 -20 -20 -20 -20 -20 -20 -20 -20
-20 -20 -20 -20 -6 3 -13 -20 -20 -20 -20 -20 -20 -20 -20 -14 -11 -20 -20 -20 -20 -20 -20 -20 -20 -20 -20 -20 -20 -20 -20 -20 -20 -20 -20 -20 -20 -20 -20 -20 -20 -20 -20 -20 -10
-20 -20 -13 -20 -20 -20 -20 -20 -20 -20 -20 -20 -20 -20 -20 -20 -20 -20 -20 -20 -20 -20 -20 -20 -20 -20 -20 -20 -20 -20 -20 -20 -20 -20 -20 -20 -20 -20 -20 -20 -20 -15 5 9 7
-20 -20 -20 -20 -20 -20 -20 -20 -20 -20 -20 -20 -20 -20 -20 -20 -20 -20 -20 -20 -20 -20 -20 -20 -20 -20 -20 -20 -20 -20 -20 -20 -20 -20 -20 -20 -20 -20 -20 -20 -20 6 1 -10 -13
-20 -20 -20 -20 -20 -20 -20 -20 -20 -20 -20 -19 -20 -20 -20 -20 -20 -20 -20 -20 -20 -20 -20 -20 -20 -20 -20 -20 -20 -20 -20 -20 -20 -20 -20 -20 -20 -20 -20 -20 -20 -20 -20 -20 -20
-20 -20 -20 -20 -20 -20 -18 3 -20 -20 -20 -20 -20 -20 -20 -6 2 -6 -20 -20 -17 5 -9 -18 -20 -20 -20 -20 -20 -20 -20 -20 -20 -20 -20 -20 -20 -20 -20 -20 -20 -20 -20 2 -20
-20 -20 -20 -20 -20 -20 -0 -20 -20 -20 -20 -20 -20 -20 -20 -18 1 -20 -20 -3 -17 4 6 -12 -20 -20 -20 -20 -20 -20 -20 -20 -20 -20 -20 -20 -20 -20 -20 -20 -20 7 -19 -20 -20
-20 -20 -20 -20 -20 14 -7 -20 -20 -20 -20 -20 -20 -20 -20 -20 -20 -20 -20 -15 -17 -20 -20 -20 -20 -20 -20 -20 -20 -20 -20 -14 -20 -20 -20 -20 -20 26 -20 -9 4 33 28 5 -20
-20 -20 -20 -20 9 11 -19 -20 -20 -20 -20 -0 -20 -20 -20 -20 -20 -20 -20 -20 -20 -20 -11 -20 -20 -20 -20 -20 -20 -20 28 22 7 -20 -20 -5 -20 -20 -20 -1 13 41 26 -8 18
-17 6 -20 -20 -20 9 12 -6 -4 -15 -20 -15 -17 -5 -20 -20 -20 -6 -20 -20 -20 -20 -20 -20 -20 -20 -20 -20 -20 10 8 4 4 27 -14 -2 -20 -20 -7 27 15 36 29 16 38
-20 -20 -20 -16 -10 -20 -20 -20 -20 -7 -20 -17 11 7 -19 -20 -20 -20 -14 -20 -20 -20 -20 -20 -20 -20 -20 -20 -20 -20 -13 -19 -20 -20 -20 -20 -20 -20 -20 -7 18 21 34 19 -8
1 -20 -20 -20 -12 -7 11 -18 -13 -18 -18 -12 -20 14 12 -20 -20 -20 -20 -20 -20 -20 -20 -20 -20 -20 -20 -20 -20 -20 -20 -20 -12 -20 -20 -20 -0 -20 -7 9 14 26 30 4 -4
-20 -20 -19 -18 -20 -20 -16 -20 2 -19 14 0 -14 -20 -20 -7 -20 -20 -6 -15 -10 -20 -20 -20 -20 -20 -20 -20 -20 -20 -20 -20 -20 -20 -20 -20 -20 26 16 5 9 9 30 18 30
-9 -18 -12 -20 -20 -17 -20 6 19 3 -20 -12 33 24 -11 8 -20 13 -20 -20 -20 -20 -20 -20 -20 -20 -20 -20 -20 -20 -20 -20 -20 -20 -20 -20 7 18 8 4 8 27 18 28 12
Wind_Speed
13 15 16 17 18 19 19 20 20 22 22 23 24 25 26 24 26 4 8 14 10 6 5 4 3 4 2 4 4 5 2 6 11 8 14 9 6 3 5 6 3 6 8 8 13
12 14 15 17 18 19 20 21 21 21 23 24 24 24 24 24 8 12 13 10 14 10 6 8 5 5 2 4 4 6 5 10 5 8 12 15 5 14 4 6 6 5 3 6 17
14 14 16 18 19 19 21 21 21 24 23 22 23 22 24 18 6 8 4 7 9 9 2 2 2 6 5 2 5 5 10 5 9 10 10 17 8 7 6 6 10 7 5 10 11
13 15 17 19 19 21 19 21 23 25 25 23 23 23 23 1 6 3 4 5 7 6 3 4 4 4 4 7 7 8 12 7 7 11 8 15 15 9 9 11 9 11 6 10 13
13 15 17 18 20 21 21 22 23 24 24 23 21 19 9 3 14 8 4 4 3 5 5 3 3 3 6 5 7 13 13 14 12 9 8 10 9 12 9 13 12 9 7 13 16
13 14 15 19 20 21 21 23 24 24 23 22 20 14 2 9 7 4 4 4 7 3 4 4 6 6 6 8 8 7 9 9 5 4 6 11 13 4 5 11 11 9 12 11 15
13 13 15 18 19 21 23 25 27 26 24 22 18 6 5 22 5 9 12 4 5 5 4 3 3 4 2 5 2 4 7 8 3 3 5 8 17 7 9 8 9 14 18 12 11
15 14 15 18 18 21 25 28 30 29 24 20 9 5 12 7 6 11 9 8 7 7 5 6 4 4 3 3 8 5 6 7 4 3 5 2 25 8 6 8 13 15 18 19 12
15 14 15 17 19 21 26 31 33 28 15 7 5 4 13 12 6 8 8 4 3 4 4 7 3 6 2 1 4 3 12 10 9 8 7 8 22 4 9 9 13 15 17 19 17
15 16 15 17 19 22 28 33 23 9 2 6 3 3 8 5 1 5 3 3 0 5 5 4 2 4 2 5 12 7 7 5 9 4 3 8 16 8 7 7 10 17 15 16 10
15 15 16 16 20 23 20 7 8 5 5 7 6 9 13 7 6 3 5 6 1 2 5 3 4 7 21 10 13 4 5 12 8 14 4 11 12 12 8 11 15 19 15 12 16
15 15 16 16 19 23 7 6 7 7 15 15 23 23 26 12 10 22 8 6 7 11 5 5 13 17 5 9 10 10 12 17 15 13 9 14 17 18 7 11 16 21 19 16 8
16 17 18 14 21 4 6 11 15 8 6 15 12 11 11 17 17 29 7 4 6 6 11 13 10 8 11 10 10 14 12 12 16 7 6 5 16 11 10 9 15 19 16 17 10
14 16 16 16 4 8 3 16 15 4 5 9 7 10 9 9 9 14 16 10 6 11 8 12 15 17 13 12 12 20 6 13 10 6 12 8 15 15 14 16 13 16 15 15 7
14 15 13 8 4 4 7 14 14 1 6 3 4 5 8 9 5 4 12 5 9 6 6 8 4 8 15 17 11 19 9 12 12 7 1 4 3 19 6 18 18 14 16 17 8
12 14 12 5 2 5 9 13 2 1 10 8 0 2 3 8 5 7 5 3 6 6 7 8 4 4 6 7 5 4 5 3 2 2 9 4 6 20 6 10 14 17 19 18 9
10 9 8 3 4 5 8 5 3 5 9 3 12 12 16 8 5 4 5 9 6 4 5 8 11 6 5 7 11 6 4 4 3 2 14 5 9 16 9 15 12 17 18 20 20
10 10 5 6 5 4 4 3 5 3 7 19 17 14 5 10 8 5 3 8 8 4 5 5 9 5 1 7 8 9 10 8 5 8 12 4 7 6 4 7 10 12 19 20 19
10 3 3 5 6 3 2 5 6 7 7 12 19 7 5 16 12 9 2 3 7 8 8 3 6 3 2 2 3 5 5 11 6 3 5 6 14 11 19 7 12 14 18 24 7
2 3 5 3 6 3 3 8 8 4 14 8 7 6 13 17 10 12 5 12 6 8 6 3 2 4 5 5 5 3 4 1 1 4 13 6 6 9 5 11 15 14 20 27 11
3 3 5 3 4 2 6 6 7 9 14 7 12 13 15 16 4 6 5 7 13 9 7 5 2 5 3 4 6 7 5 6 3 4 7 6 5 6 6 4 10 18 19 15 15
1 2 3 3 2 2 8 6 7 11 13 12 11 15 20 6 5 1 5 4 9 9 4 3 3 3 6 7 2 1 2 4 3 6 4 6 11 7 5 6 11 12 21 18 13
1 2 5 6 3 5 4 11 12 13 12 9 12 10 18 4 4 3 1 5 7 7 6 5 3 3 7 3 8 7 2 5 4 2 3 4 6 11 8 5 10 6 17 17 17
1 2 5 1 2 3 6 8 6 7 6 9 13 14 18 7 3 5 7 1 7 5 4 2 2 5 5 2 3 7 12 9 2 2 4 8 12 17 16 3 4 9 19 12 19
2 4 3 3 4 3 6 6 13 10 10 6 8 13 8 5 2 5 5 9 6 8 2 3 6 5 7 6 6 11 15 14 13 12 8 9 15 17 11 6 5 6 14 18 14
3 2 2 3 6 6 8 6 12 18 4 5 3 15 8 3 3 5 3 1 1 6 4 4 4 3 5 5 10 16 16 14 18 17 16 17 18 9 10 11 6 2 2 10 10
2 2 0 5 3 3 4 10 8 7 7 9 7 6 9 5 2 3 3 4 5 1 3 2 2 3 9 6 9 13 15 14 17 16 11 16 10 3 5 6 9 7 7 8 10
Wind_Direction
359 357 354 350 345 341 339 337 337 335 332 330 331 329 330 332 325 307 243 223 194 200 144 126 174 193 168 244 193 134 125 207 238 183 252 305 322 335 274 280 244 209 177 209 142
357 353 349 346 343 338 338 338 334 334 331 330 330 328 327 333 321 276 246 254 219 157 176 197 199 168 232 229 217 161 194 225 220 226 271 290 282 294 269 291 285 310 355 102 138
346 343 341 342 343 337 335 331 330 331 329 328 326 328 325 333 322 250 206 199 173 176 274 222 195 167 210 252 232 213 232 242 265 253 253 279 280 260 252 251 229 237 249 162 167
336 336 338 337 338 335 330 326 325 326 326 324 325 327 323 328 278 323 153 208 180 169 192 205 185 168 204 222 241 255 262 243 255 260 265 267 275 257 230 236 233 216 218 164 179
328 329 330 329 327 327 323 317 316 317 318 319 320 327 340 302 250 272 219 202 179 177 209 222 226 178 214 231 247 249 261 265 258 257 268 274 266 260 264 264 263 264 250 182 186
324 318 320 322 321 320 316 310 309 308 309 310 309 320 252 270 248 228 94 249 247 210 254 214 226 205 260 239 235 275 268 259 269 296 243 270 281 270 270 270 284 286 274 257 189
334 335 325 322 318 316 311 308 306 301 301 300 296 261 243 245 272 309 325 250 216 199 233 198 259 179 281 305 273 257 301 309 247 230 270 292 280 240 255 306 304 308 290 260 223
331 325 327 325 318 313 311 307 303 299 297 290 269 205 250 249 248 262 245 266 248 259 215 239 216 261 219 285 340 346 303 285 165 349 263 288 276 301 296 337 320 308 313 273 249
343 332 329 326 318 316 311 306 300 300 290 235 165 200 263 302 245 248 190 236 314 330 265 249 159 195 335 93 352 269 260 260 291 217 250 239 280 269 313 312 306 312 314 297 260
342 339 332 327 318 319 315 305 292 305 128 152 237 289 255 251 112 313 237 255 64 322 322 160 169 159 70 141 233 214 249 235 257 247 267 272 274 276 276 286 293 304 306 307 251
346 342 335 329 319 323 329 337 5 347 16 268 270 266 292 298 328 208 13 341 315 211 220 232 158 199 219 207 234 206 268 268 276 276 275 265 263 279 273 293 296 293 292 282 273
340 343 338 329 319 322 335 29 7 281 295 265 258 256 254 277 295 283 167 191 175 220 169 269 237 224 203 222 235 245 250 265 278 269 258 267 272 276 268 275 281 276 282 284 286
342 340 340 327 320 358 325 13 336 340 274 294 237 244 233 190 226 256 199 196 195 207 202 214 225 199 208 232 229 240 230 254 248 264 247 293 280 282 275 264 272 266 270 280 269
342 342 343 333 15 325 341 340 329 308 304 276 243 251 191 179 233 220 201 177 195 215 216 242 240 249 249 242 217 259 216 252 255 272 279 182 279 277 278 270 267 265 276 273 180
337 339 343 344 285 330 296 320 319 34 311 248 236 187 156 195 326 217 177 163 197 189 153 231 211 215 231 241 208 253 210 232 250 260 284 245 289 275 342 288 286 279 277 284 263
331 331 338 334 338 256 324 310 352 56 253 300 325 278 149 236 304 342 159 242 187 222 259 240 258 267 225 263 208 302 273 226 214 176 252 215 193 276 248 262 281 286 290 291 289
320 328 329 300 257 329 327 356 59 216 318 280 7 339 325 281 235 226 233 202 180 160 234 271 262 240 196 255 273 193 100 304 306 279 261 222 239 262 276 273 283 299 296 303 304
321 314 264 230 251 30 345 54 221 280 259 307 350 320 285 310 260 234 241 235 236 225 192 204 295 160 352 181 217 218 193 202 219 244 268 243 251 255 264 320 335 331 336 311 282
339 343 284 242 212 122 76 200 225 201 239 358 335 327 346 352 345 346 26 286 239 222 229 173 247 31 59 259 110 289 171 210 215 173 279 247 273 307 280 17 17 331 334 344 337
19 15 266 292 127 109 180 238 229 280 332 6 320 320 335 326 341 353 323 22 8 4 303 153 246 43 319 323 59 86 268 65 21 206 253 259 272 254 344 4 352 350 332 340 339
48 6 267 328 104 171 226 238 290 257 270 281 321 301 292 299 324 315 298 57 14 357 34 35 69 299 2 70 20 352 360 8 294 161 236 263 260 183 112 73 27 338 323 319 328
338 285 255 18 164 212 235 240 229 274 278 291 297 277 279 254 282 278 299 357 351 342 18 332 142 296 250 295 219 132 17 329 308 324 313 265 261 272 185 115 86 312 305 312 329
245 258 300 112 191 236 274 285 275 285 288 279 266 303 298 256 280 223 4 335 26 7 339 342 6 345 311 36 42 69 25 1 215 232 258 271 271 3 0 103 87 332 306 315 331
68 315 307 112 236 284 302 275 261 254 272 274 276 267 273 254 230 288 310 237 330 309 227 10 193 188 235 301 337 301 308 319 105 243 330 279 291 312 310 334 67 25 298 316 298
152 240 212 289 289 262 274 296 277 276 266 269 286 241 240 264 283 286 327 343 20 2 314 161 221 232 242 258 274 280 288 291 275 267 229 272 276 296 295 269 133 86 301 297 296
164 208 289 281 274 284 292 249 292 293 250 306 281 311 319 329 254 281 17 7 301 337 15 347 281 243 268 302 303 294 283 279 271 266 271 265 263 326 335 261 128 185 351 359 18
191 232 23 257 275 293 226 263 267 308 285 221 249 279 302 288 291 253 230 242 237 287 297 300 335 22 280 323 314 282 267 255 249 248 251 263 291 20 303 133 31 40 42 10 16